sat.trackr.live / text

‹ back to catalog

STARLINK-2280

NORAD 47861 · 2021-021B

PAYLOAD ACTIVE UNKNOWN

§ Identity

Operator
Country
US
Launch date
2021-03-14
Launch site
AFETR
Launch vehicle
Mass (kg)
RCS (m²)

Purposes: comms

External: N2YO · Heavens-Above · Gunter

§ Orbital elements

Epoch: 2026-09-20T02:18:01.712160Z

Period
94.01 min
Inclination
53.1582°
Eccentricity
0.0000849
Mean motion
15.31706400 rev/d
Perigee alt
470.1 km
Apogee alt
471.3 km
Semi-major
6,848.9 km
B*
4.3949e-5
RAAN
73.5862°
Arg perigee
123.9814°
Mean anomaly
236.1268°
Rev number
30,618

§ Raw data

STARLINK-22801 47861U 21021B   26263.09585315  .00000999  00000+0  43949-4 0  99962 47861  53.1582  73.5862 0000849 123.9814 236.1268 15.31706400306185

JSON: /api/v1/satellites/47861 · /tle

For live sub-satellite position, see the globe view (requires WebGL).

§ Visibility from observer

Set your observer location to see the next 7 days of passes ≥ 10°. The values pass through the URL so the page stays shareable.

No JS? Fill the form by hand. The geolocation button needs JavaScript.